Theta_e
313 314 315 315 317 318 317 319 321 323 322 319 321 326 326 326 326 323 321 323 325 327 330 320 318 317 318 316 317 318 320 326 327 330 328 319 322 321 320 325 324 327 328 331 336
312 313 313 315 316 316 317 318 318 321 322 320 323 324 323 324 321 321 323 323 324 325 328 325 323 316 317 318 317 325 323 322 326 325 325 321 321 321 323 324 325 336 335 336 336
312 312 312 313 315 315 316 317 318 319 322 320 321 323 322 322 322 323 323 322 320 320 325 324 321 319 322 318 318 320 327 324 325 324 319 321 320 321 321 324 325 334 335 335 336
312 312 312 312 312 314 315 317 317 317 321 321 320 322 322 321 324 323 323 323 320 319 322 321 320 322 322 321 319 317 319 325 325 325 319 321 321 321 319 321 321 332 335 334 335
312 312 311 310 312 312 313 315 316 316 319 321 321 320 321 322 321 321 322 321 321 320 320 321 323 322 327 321 320 321 316 318 322 318 318 317 319 320 318 317 316 331 334 333 334
312 311 311 310 312 311 313 315 316 316 317 320 320 321 321 323 320 321 321 321 320 322 322 320 322 322 324 324 324 321 321 321 319 318 317 317 317 317 318 316 317 333 334 333 332
312 310 311 311 312 311 312 315 316 315 314 316 320 320 320 321 319 320 322 321 321 322 322 322 321 324 324 325 321 322 326 325 322 318 317 315 316 316 316 314 316 328 333 333 332
312 310 310 311 312 310 312 314 315 314 315 314 317 319 320 319 319 321 322 321 321 321 321 321 321 318 320 315 322 324 322 331 327 316 317 316 324 316 315 313 313 319 325 331 331
312 311 310 310 311 310 312 314 313 313 315 315 315 315 317 318 319 320 321 321 320 319 320 319 319 320 316 321 324 322 331 326 327 321 316 314 317 319 317 313 313 313 319 326 329
312 311 311 311 309 309 312 312 312 312 313 313 314 315 315 317 318 320 321 320 319 319 320 321 320 323 320 322 336 326 327 326 329 323 317 315 314 316 316 314 314 311 314 318 324
312 311 311 310 309 309 312 311 310 311 311 309 312 314 315 317 317 319 319 318 319 320 323 318 324 324 323 321 323 325 328 332 325 323 322 321 317 315 315 312 311 311 312 316 322
312 311 310 310 308 310 311 310 308 309 311 309 310 311 314 316 316 318 317 320 320 323 317 319 323 320 320 321 321 324 328 330 330 322 318 318 316 314 312 311 311 313 312 313 319
312 311 310 309 307 311 310 309 309 308 308 310 308 310 311 313 315 318 316 319 321 322 321 322 320 319 322 323 325 323 325 327 329 315 319 311 312 313 312 311 311 311 312 313 318
312 310 310 308 308 309 310 310 310 308 300 307 311 310 312 311 313 315 317 318 318 322 319 321 318 320 323 325 326 329 322 324 324 318 323 311 322 315 314 313 311 312 312 314 312
311 310 309 306 306 309 309 308 308 303 292 301 311 310 311 311 310 313 315 317 319 320 319 320 320 321 323 323 323 326 325 325 323 322 324 317 316 320 314 314 313 313 313 313 310
310 309 307 305 306 308 309 307 305 299 296 311 311 313 314 311 312 312 313 313 314 317 316 316 310 318 320 314 321 321 323 315 319 318 324 323 314 314 321 316 314 313 312 311 310
310 309 306 305 306 308 309 305 302 295 297 312 313 311 312 312 311 314 314 315 316 315 316 311 313 312 313 314 314 320 321 323 324 322 324 316 313 318 316 315 315 314 312 311 310
309 308 305 306 306 308 306 304 295 294 300 309 311 312 312 312 312 312 314 315 315 315 315 318 315 313 313 317 318 322 323 324 326 323 321 308 318 321 316 313 311 311 311 310 310
308 306 305 307 307 307 305 306 297 297 307 309 309 312 312 311 313 312 313 312 313 314 320 320 321 312 313 313 315 315 321 317 318 308 314 313 307 308 308 310 309 307 305 306 308
306 306 305 307 307 306 306 304 301 306 304 305 303 306 306 308 315 314 314 312 311 312 315 319 320 313 313 314 314 317 317 320 318 320 321 314 309 320 311 311 306 306 304 304 306
305 306 306 307 307 307 307 304 304 306 306 305 305 308 311 312 313 315 313 312 311 312 315 318 318 314 314 316 317 315 318 317 316 316 321 314 311 307 311 312 309 305 303 303 305
303 306 306 307 308 307 305 303 303 301 304 306 306 306 304 307 310 312 314 312 310 312 317 316 317 312 314 311 312 313 317 318 323 318 310 311 310 303 305 306 305 304 303 302 305
303 304 305 305 305 305 302 301 300 300 301 306 304 305 306 307 305 309 310 309 309 312 316 317 317 314 314 312 311 316 316 318 317 314 311 313 310 303 305 306 304 303 303 302 305
303 303 302 302 298 300 299 299 300 300 300 303 304 305 305 307 307 308 308 307 306 308 308 316 315 317 315 314 312 315 314 316 319 319 313 309 309 305 304 304 304 303 304 305 307
298 301 301 304 300 299 299 300 300 301 299 299 301 303 304 303 306 307 307 307 306 306 311 316 318 317 318 314 312 314 316 315 320 319 317 313 309 309 305 303 303 302 302 306 307
300 300 300 301 300 300 300 300 301 300 300 300 300 301 302 304 303 304 306 306 307 306 305 313 315 312 316 310 314 315 315 315 317 318 317 314 311 311 307 304 303 301 302 306 308
297 299 298 301 298 298 300 299 300 300 300 300 300 301 302 302 303 302 303 305 304 306 307 307 311 313 320 310 313 317 314 315 315 315 316 318 316 309 307 305 304 302 302 305 307
Wind_Speed
27 24 23 23 21 19 18 17 16 15 13 11 10 12 13 11 10 9 5 6 13 6 10 10 8 8 5 4 3 5 1 3 5 3 5 4 4 2 0 5 5 4 4 10 33
30 26 24 23 23 22 19 16 15 16 15 12 12 12 11 11 7 6 7 9 11 9 9 10 5 10 4 4 2 4 3 5 3 4 4 5 4 7 4 3 4 5 9 29 31
32 30 26 25 23 23 21 19 18 14 17 15 14 14 13 13 3 6 19 15 10 7 10 11 20 6 4 4 2 4 5 5 7 10 7 5 4 4 9 4 7 10 10 17 22
34 31 28 25 25 22 22 20 17 17 17 16 15 15 14 10 6 3 17 19 13 12 17 17 6 6 5 4 3 3 8 11 10 8 4 4 5 5 6 7 9 18 22 16 18
38 34 29 27 24 24 23 22 19 17 17 17 18 17 16 4 3 2 16 16 17 18 9 9 10 6 6 4 2 2 6 5 15 8 5 3 5 6 7 6 4 18 20 16 19
40 36 32 28 25 24 23 23 21 20 16 17 20 21 7 7 3 9 17 18 17 14 7 6 4 7 7 5 5 6 7 15 10 5 5 3 4 5 8 6 5 19 17 15 20
43 39 35 31 28 24 23 24 22 20 18 16 19 21 3 7 6 12 18 18 17 12 6 2 8 5 7 6 2 2 1 10 13 8 5 2 7 8 8 6 10 14 15 15 20
44 42 38 33 29 24 24 24 23 20 19 17 16 14 3 10 9 16 17 12 16 8 12 12 10 8 4 1 5 5 1 5 12 8 5 10 15 11 10 8 10 11 11 14 15
47 44 40 36 30 25 26 23 22 21 18 16 13 5 4 10 10 15 19 13 14 13 12 15 7 2 3 6 4 4 4 6 5 10 6 7 6 11 10 11 12 12 13 14 14
50 45 41 37 32 29 29 28 24 22 18 13 12 6 5 5 10 13 13 23 6 13 5 3 3 2 5 4 12 5 2 6 13 10 14 10 12 10 8 10 15 10 10 11 13
52 47 43 39 35 33 35 26 9 4 7 6 8 1 8 13 18 12 14 13 7 5 8 3 4 11 11 10 10 9 9 12 8 15 12 23 19 18 15 6 10 11 11 12 16
53 50 46 41 36 38 37 8 12 10 6 9 5 7 4 7 4 10 21 7 6 7 8 4 18 16 8 9 10 16 12 12 9 9 5 12 19 16 14 8 10 16 11 13 16
55 53 49 44 39 38 30 13 18 21 6 6 6 5 7 8 5 16 15 8 7 11 12 14 4 15 14 9 9 10 10 12 13 5 9 4 11 17 9 12 8 9 9 14 18
57 55 52 46 33 32 25 14 27 6 5 3 7 6 5 7 4 9 25 5 5 16 14 14 8 17 14 16 15 11 11 12 7 1 6 8 7 11 19 18 15 18 18 18 12
59 57 55 51 26 23 37 26 25 8 4 6 7 8 10 11 9 9 19 6 13 8 6 9 13 17 18 21 19 7 4 11 2 3 6 10 6 9 10 20 20 24 20 17 12
61 59 56 34 28 35 37 24 14 6 6 5 7 12 12 11 0 6 5 1 4 7 4 7 6 12 12 5 8 9 5 7 3 2 5 14 11 6 11 15 20 16 19 18 15
63 61 52 38 20 41 41 12 4 5 4 8 6 14 15 12 15 7 17 15 11 5 9 3 2 3 6 7 2 9 11 1 3 4 9 6 9 16 5 11 19 22 19 17 15
64 60 44 28 46 47 30 9 5 7 6 4 6 15 13 11 9 15 9 12 17 6 4 9 5 10 6 7 10 19 14 5 6 6 4 5 12 13 16 12 6 9 12 13 16
63 42 36 37 50 46 14 12 8 7 9 10 6 6 3 14 5 14 18 17 12 14 8 8 7 8 10 2 11 5 9 10 1 1 1 6 7 9 9 8 7 7 8 10 13
35 28 24 43 49 31 13 12 4 4 10 8 6 5 7 9 11 16 14 14 21 21 12 5 4 12 7 3 1 6 14 6 3 2 5 5 6 11 11 14 8 9 10 8 6
32 9 23 44 40 13 14 7 4 6 8 6 6 6 5 6 11 12 10 9 25 19 18 9 2 4 8 9 12 5 6 5 5 4 3 3 7 6 13 18 16 11 9 11 10
6 6 31 46 11 9 7 9 5 7 4 4 4 5 5 5 2 3 9 9 17 19 26 12 4 4 8 4 7 1 10 10 8 7 5 3 7 3 5 8 10 10 9 8 9
6 6 20 35 8 9 5 5 3 5 5 4 4 4 4 5 1 6 1 4 16 19 12 13 5 4 5 2 3 5 12 12 8 5 7 3 6 2 3 4 3 9 8 8 8
7 6 3 5 3 8 7 5 6 5 4 5 6 7 6 5 4 3 3 4 8 7 23 14 6 9 12 13 10 15 21 23 17 8 3 10 7 6 4 6 5 5 5 7 10
3 4 3 15 8 8 8 7 9 7 5 9 5 8 8 5 6 8 8 10 8 5 16 6 14 17 21 9 17 15 24 20 25 23 15 8 8 13 5 9 10 8 7 7 9
4 6 3 10 12 11 11 9 16 5 8 6 7 9 7 9 10 2 5 7 5 3 6 2 4 5 11 8 19 17 23 27 27 23 17 13 14 14 3 2 6 9 10 10 11
3 6 5 14 7 5 10 8 9 10 8 6 8 6 12 17 14 14 11 4 12 6 7 1 7 6 12 4 11 12 26 30 25 25 30 18 28 14 14 11 10 10 11 14 14
Wind_Direction
222 217 216 214 212 203 203 204 202 199 196 197 190 182 186 194 191 178 197 230 224 189 183 144 84 65 50 14 50 0 99 224 244 234 232 200 135 75 154 114 61 21 150 167 160
218 217 214 212 212 208 201 199 195 195 189 186 181 181 180 178 171 196 193 207 215 205 180 163 108 65 55 350 360 115 194 218 253 326 254 191 150 145 110 115 71 56 48 140 151
213 215 216 210 209 208 202 197 197 189 186 183 182 177 176 163 128 238 206 192 192 179 172 135 122 75 58 2 285 204 215 243 287 280 305 181 176 185 130 210 198 163 150 152 158
210 211 211 208 209 206 200 192 189 191 183 182 181 168 161 167 191 269 196 184 176 174 142 126 93 100 116 185 295 12 236 237 274 284 250 192 147 175 166 212 182 162 161 157 176
210 207 208 205 204 203 200 192 185 175 175 179 179 163 154 175 255 18 179 167 154 170 169 136 122 125 159 183 88 202 290 276 238 289 228 350 225 193 221 228 147 148 157 169 181
207 207 204 201 199 199 194 189 182 178 163 172 181 166 141 185 203 173 175 169 169 161 174 196 179 130 112 160 201 207 288 298 317 221 287 190 260 162 240 196 153 156 173 175 180
204 205 202 197 196 197 188 185 178 174 173 174 175 174 186 191 163 165 174 172 169 160 141 148 160 109 122 145 160 105 273 274 283 264 236 138 286 232 233 158 169 181 178 180 190
201 202 200 195 194 188 183 177 170 159 166 167 168 173 215 195 161 166 169 149 173 172 134 131 128 79 67 152 80 159 134 204 234 250 228 163 252 232 232 200 208 200 184 187 190
198 198 195 192 187 177 175 166 159 157 162 161 147 140 208 161 184 194 180 150 153 115 104 126 86 87 116 135 107 239 186 202 250 230 209 182 246 229 229 202 220 206 196 192 196
193 193 189 187 184 175 165 152 142 133 128 109 114 107 171 182 144 181 188 154 120 117 111 159 102 172 128 169 208 167 195 211 223 204 214 217 241 270 242 203 224 198 209 195 193
189 188 182 182 175 169 154 132 116 126 190 164 169 133 134 123 145 156 157 124 141 176 169 171 177 210 178 178 260 308 214 233 215 232 216 228 232 230 249 229 219 206 203 206 202
182 181 177 178 175 166 155 166 167 154 161 250 140 224 89 150 117 167 157 164 166 183 120 144 228 215 188 182 197 257 261 236 264 253 268 241 240 230 231 228 211 207 212 208 210
178 175 171 171 167 165 168 160 154 150 126 187 192 175 168 166 192 174 182 175 207 193 188 206 204 190 194 198 198 219 241 241 235 195 205 282 264 242 240 230 227 225 215 213 204
172 168 164 168 162 168 175 176 172 152 79 215 173 219 128 122 250 153 189 180 210 215 192 226 199 186 195 195 192 228 198 255 300 38 220 188 269 226 220 225 218 220 221 219 194
168 164 163 167 152 172 160 139 149 110 85 203 163 158 156 172 139 194 178 138 210 197 171 203 173 178 194 198 179 208 193 235 196 295 301 252 242 261 196 221 210 218 217 216 201
164 163 161 161 154 164 172 138 117 61 236 145 142 169 160 200 330 123 150 182 57 201 236 233 299 180 183 66 182 112 100 48 44 93 248 222 223 227 209 202 216 218 215 210 203
162 161 162 156 155 160 156 143 88 151 262 172 161 175 182 181 211 161 184 189 190 162 193 130 261 318 146 104 29 130 111 198 203 193 232 211 223 243 246 201 204 210 210 207 206
160 157 159 156 153 155 151 140 122 198 194 142 131 167 184 170 205 206 180 190 194 177 140 182 223 188 192 184 170 174 157 170 211 203 254 158 232 245 224 236 254 217 210 195 201
151 151 152 157 154 151 147 179 195 181 148 142 103 151 179 197 150 190 212 216 193 193 179 180 215 178 199 155 157 173 164 126 188 304 326 214 272 303 233 230 222 179 158 183 202
142 145 154 156 153 154 164 191 161 137 141 133 143 166 170 188 184 186 181 217 222 197 197 192 210 197 178 151 69 205 141 126 146 190 259 256 260 226 202 222 207 199 186 180 149
132 133 161 154 150 160 189 174 151 163 127 127 160 148 142 162 202 205 211 211 200 192 198 165 189 149 157 206 168 140 154 133 109 170 258 302 262 231 206 215 207 191 188 173 171
109 121 156 152 160 178 161 165 148 164 107 99 92 100 132 158 148 167 236 217 204 195 202 205 162 176 207 213 211 198 180 158 180 187 231 252 275 311 299 222 179 182 186 187 168
105 100 155 163 169 164 154 143 104 145 148 123 115 143 173 162 179 183 227 332 289 205 205 172 175 162 145 31 353 197 181 171 147 84 226 199 264 324 317 356 150 163 188 180 156
128 126 123 171 98 132 130 150 149 199 130 126 145 143 146 178 204 256 244 239 359 318 308 202 170 190 208 211 145 188 188 191 167 160 231 232 291 270 231 226 230 176 172 160 165
53 88 122 174 192 151 139 134 169 162 183 162 199 173 168 189 195 224 239 271 229 270 304 255 208 215 237 219 182 197 188 184 198 181 196 207 232 270 245 223 214 195 170 167 174
112 135 89 132 125 124 168 189 182 168 152 210 196 178 187 209 200 26 186 210 238 192 329 261 211 154 236 206 187 191 191 188 198 203 219 235 258 278 301 162 194 196 174 186 193
58 85 99 148 135 122 198 173 163 158 217 173 189 165 212 225 237 249 267 313 287 258 180 264 319 186 230 236 201 204 191 189 195 202 210 208 224 201 217 226 209 201 190 198 198